Home   Weather   Philadelphia   Past weeks
Flag for USA

Past Weather in Philadelphia, Pennsylvania, USA — Yesterday and Last 2 Weeks

Now
97 °F

Passing clouds.


Feels Like: 106 °F
Forecast: 98 / 81 °F
Wind: 14 mph from Southwest

Location: Philadelphia International Airport

Current Time: Jul 21, 2019 at 3:17:53 pm

Latest Report: Jul 21, 2019 at 1:54 pm


Visibility: 10 mi

Pressure: 29.82 "Hg

Humidity: 45%

Dew Point: 72 °F

Location of PhiladelphiaLocation

Past Weather in Philadelphia — Graph

°F

Philadelphia Temperature Yesterday

Maximum temperature yesterday: 97 °F (at 3:54 pm)
Minimum temperature yesterday: 81 °F (at 3:54 am)
Average temperature yesterday: 89 °F

High & Low Weather Summary for the Past Weeks

 TemperatureHumidityPressure
High97 °F (Jul 20, 3:54 pm)94% (Jul 6, 4:22 pm)30.10 "Hg (Jul 6, 4:22 pm)
Low69 °F (Jul 9, 12:54 am)35% (Jul 15, 4:54 pm)29.74 "Hg (Jul 12, 4:54 am)
Average80 °F70%29.93 "Hg
* Reported Jul 6 1:35 pm — Jul 21 1:54 pm, Philadelphia. Weather by CustomWeather, © 2019

Note: Actual official high and low records may vary slightly from our data, if they occured in-between our weather recording intervals... More about our weather records

Advertising

Philadelphia Weather History for the Previous 24 Hours

Scroll right to see more
 ConditionsComfort  
Time TempWeatherWind HumidityBarometerVisibility
1:54 pm
Sun, Jul 21
97 °FPassing clouds.14 mph45%29.82 "Hg10 mi
12:54 pm96 °FPassing clouds.12 mph47%29.82 "Hg10 mi
11:54 am94 °FPassing clouds.12 mph51%29.84 "Hg10 mi
10:54 am93 °FPassing clouds.10 mph52%29.85 "Hg10 mi
9:54 am91 °FPassing clouds.12 mph56%29.85 "Hg10 mi
8:54 am87 °FScattered clouds.9 mph65%29.86 "Hg10 mi
7:54 am86 °FScattered clouds.6 mph67%29.86 "Hg10 mi
6:54 am83 °FScattered clouds.8 mph77%29.84 "Hg10 mi
5:54 am83 °FScattered clouds.6 mph77%29.81 "Hg10 mi
4:54 am83 °FPassing clouds.5 mph77%29.80 "Hg10 mi
3:54 am83 °FClear.7 mph74%29.83 "Hg10 mi
2:54 am85 °FPassing clouds.7 mph70%29.82 "Hg10 mi
1:54 am85 °FPassing clouds.7 mph77%29.83 "Hg10 mi
12:54 am87 °FPassing clouds.9 mph75%29.83 "Hg10 mi
11:54 pm
Sat, Jul 20
87 °FPassing clouds.8 mph75%29.83 "Hg10 mi
10:54 pm89 °FPassing clouds.9 mph68%29.83 "Hg10 mi
9:54 pm90 °FPassing clouds.10 mph66%29.84 "Hg10 mi
8:54 pm91 °FPartly cloudy.10 mph60%29.83 "Hg10 mi
7:54 pm92 °FBroken clouds.13 mph58%29.83 "Hg10 mi
6:54 pm94 °FScattered clouds.13 mph54%29.82 "Hg10 mi
5:54 pm96 °FScattered clouds.14 mph49%29.82 "Hg10 mi
4:54 pm97 °FScattered clouds.14 mph45%29.81 "Hg10 mi
3:54 pm97 °FScattered clouds.12 mph43%29.82 "Hg10 mi
Weather by CustomWeather, © 2019

See weather overview